{"data":{"norad_id":48648,"epoch":"2026-05-25T02:12:56.408256Z","epoch_age_seconds":64098,"freshness":"FRESH","line1":"1 48648U 21044L   26145.09231954  .00000201  00000+0  18241-4 0  9994","line2":"2 48648  53.1599 118.6514 0001099 101.1014 259.0111 15.31700139275538","mean_motion":15.31700139,"eccentricity":0.0001099,"inclination_deg":53.1599,"raan_deg":118.6514,"arg_perigee_deg":101.1014,"mean_anomaly_deg":259.0111,"bstar":1.8241e-5,"rev_number":27553,"period_min":94.013179429502,"perigee_km":469.98688933767,"apogee_km":471.49227241015,"semimajor_km":6848.8765808739,"source":"CELESTRAK","updated_at":"2026-05-25T13:38:16.754593Z"}}